Weather History for KIDI - February, 2013

Change the Weather History Date:

Tuesday, February 12, 2013

  Actual Average Record
Temperature  
Mean Temperature 29 °F -  
Max Temperature 35 °F 36 °F 66 °F (1999)
Min Temperature 23 °F 16 °F -9 °F (2014)
Degree Days  
Heating Degree Days 36    
Moisture  
Dew Point 26 °F    
Average Humidity 80    
Maximum Humidity 100    
Minimum Humidity 65    
Precipitation  
Precipitation 0.00 in - - ()
Sea Level Pressure  
Sea Level Pressure 29.95 in    
Wind  
Wind Speed 11 mph (WNW)    
Max Wind Speed 22 mph    
Max Gust Speed 28 mph    
Visibility 10 miles    
Events      
Averages and records for this station are not official NWS values.
T = Trace of Precipitation, MM = Missing Value Source: NWS Daily Summary

Daily Weather History Graph

Daily Weather History Graph

Search for Another Location

Airport or City:

Trip Planner

Search our weather history database for the weather conditions in past years. The results will help you decide how hot, cold, wet, or windy it might be!

Date:

Astronomy

Feb. 12, 2013 Rise Set
Actual Time 7:13 AM EST 5:48 PM EST
Civil Twilight 6:45 AM EST 6:16 PM EST
Nautical Twilight 6:13 AM EST 6:48 PM EST
Astronomical Twilight 5:41 AM EST 7:20 PM EST
Moon 8:08 AM EST (2/12) 8:48 PM EST (2/12)
Length of Visible Light 11h 30m
Length of Day
10h 34m
Waxing Crescent, 7% of the Moon is Illuminated
Feb 12
Waxing Crescent
Feb 17
First Quarter
Feb 25
Full
Mar 4
Last Quarter
Mar 11
New

Hourly Weather History & Observations

Time (EST) Temp. Windchill Dew Point Humidity Pressure Visibility Wind Dir Wind Speed Gust Speed Precip Events Conditions
12:15 AM 35.6 °F 26.2 °F 26.6 °F 70% 29.90 in 10.0 mi West 15.0 mph 25.3 mph N/A   Unknown
12:35 AM 35.6 °F 25.2 °F 26.6 °F 70% 29.90 in 10.0 mi West 18.4 mph 27.6 mph N/A   Unknown
12:55 AM 35.6 °F 27.1 °F 24.8 °F 65% 29.90 in 10.0 mi West 12.7 mph 21.9 mph N/A   Unknown
1:15 AM 35.6 °F 26.6 °F 26.6 °F 70% 29.91 in 10.0 mi West 13.8 mph 23.0 mph N/A   Unknown
1:35 AM 35.6 °F 28.0 °F 26.6 °F 70% 29.91 in 10.0 mi West 10.4 mph 18.4 mph N/A   Unknown
1:55 AM 35.6 °F 28.6 °F 26.6 °F 70% 29.91 in 10.0 mi West 9.2 mph - N/A   Unknown
2:15 AM 33.8 °F 22.2 °F 26.6 °F 75% 29.91 in 10.0 mi West 20.7 mph 24.2 mph N/A   Unknown
2:35 AM 33.8 °F 23.9 °F 26.6 °F 75% 29.91 in 10.0 mi West 15.0 mph - N/A   Unknown
2:55 AM 33.8 °F 26.4 °F 28.4 °F 81% 29.92 in 10.0 mi West 9.2 mph - N/A   Unknown
3:15 AM 33.8 °F 25.3 °F 28.4 °F 81% 29.92 in 10.0 mi West 11.5 mph 16.1 mph N/A   Unknown
3:35 AM 33.8 °F 25.3 °F 28.4 °F 81% 29.92 in 10.0 mi West 11.5 mph - N/A   Unknown
3:55 AM 33.8 °F 25.8 °F 28.4 °F 81% 29.92 in 10.0 mi WNW 10.4 mph - N/A   Unknown
4:15 AM 33.8 °F 26.4 °F 28.4 °F 81% 29.93 in 10.0 mi West 9.2 mph - N/A   Unknown
4:35 AM 33.8 °F 26.4 °F 28.4 °F 81% 29.94 in 10.0 mi WNW 9.2 mph - N/A   Unknown
4:55 AM 33.8 °F 24.3 °F 26.6 °F 75% 29.94 in 10.0 mi WNW 13.8 mph 21.9 mph N/A   Unknown
5:15 AM 33.8 °F 24.8 °F 26.6 °F 75% 29.94 in 10.0 mi West 12.7 mph 18.4 mph N/A   Unknown
5:35 AM 33.8 °F 25.8 °F 26.6 °F 75% 29.94 in 10.0 mi WNW 10.4 mph 16.1 mph N/A   Unknown
5:55 AM 33.8 °F 25.3 °F 26.6 °F 75% 29.94 in 10.0 mi WNW 11.5 mph 20.7 mph N/A   Unknown
6:15 AM 33.8 °F 25.8 °F 26.6 °F 75% 29.95 in 10.0 mi WNW 10.4 mph 20.7 mph N/A   Unknown
6:35 AM 32.0 °F 22.1 °F 26.6 °F 80% 29.95 in 10.0 mi WNW 13.8 mph 20.7 mph N/A   Unknown
6:55 AM 32.0 °F 22.1 °F 26.6 °F 80% 29.96 in 10.0 mi WNW 13.8 mph 20.7 mph N/A   Unknown
7:15 AM 32.0 °F 23.6 °F 24.8 °F 75% 29.97 in 10.0 mi WNW 10.4 mph 20.7 mph N/A   Unknown
7:35 AM 32.0 °F 23.0 °F 24.8 °F 75% 29.97 in 10.0 mi WNW 11.5 mph 18.4 mph N/A   Unknown
7:55 AM 32.0 °F 20.5 °F 24.8 °F 75% 29.98 in 10.0 mi WNW 18.4 mph 23.0 mph N/A   Unknown
8:15 AM 30.2 °F 19.8 °F 24.8 °F 80% 29.99 in 10.0 mi WNW 13.8 mph 23.0 mph N/A   Unknown
8:35 AM 30.2 °F 21.3 °F 24.8 °F 80% 29.99 in 10.0 mi WNW 10.4 mph - N/A   Unknown
8:55 AM 30.2 °F 21.3 °F 24.8 °F 80% 30.00 in 10.0 mi WNW 10.4 mph - N/A   Unknown
9:15 AM 30.2 °F 21.9 °F 24.8 °F 80% 30.01 in 10.0 mi WNW 9.2 mph 20.7 mph N/A   Unknown
9:35 AM 30.2 °F 21.9 °F 24.8 °F 80% 30.01 in 10.0 mi WNW 9.2 mph 20.7 mph N/A   Unknown
9:55 AM 30.2 °F 20.2 °F 24.8 °F 80% 30.02 in 10.0 mi WNW 12.7 mph 18.4 mph N/A   Unknown
10:15 AM 30.2 °F 20.8 °F 24.8 °F 80% 30.02 in 10.0 mi WNW 11.5 mph 19.6 mph N/A   Unknown
10:35 AM 30.2 °F 21.3 °F 24.8 °F 80% 30.02 in 10.0 mi WNW 10.4 mph - N/A   Unknown
10:55 AM 30.2 °F 20.8 °F 24.8 °F 80% 30.03 in 10.0 mi WNW 11.5 mph - N/A   Unknown
11:15 AM 30.2 °F 17.1 °F 24.8 °F 80% 30.03 in 10.0 mi West 21.9 mph 26.5 mph N/A   Unknown
11:35 AM 32.0 °F 22.1 °F 24.8 °F 75% 30.03 in 10.0 mi WNW 13.8 mph 19.6 mph N/A   Unknown
11:55 AM 32.0 °F 22.5 °F 24.8 °F 75% 30.03 in 10.0 mi WNW 12.7 mph 18.4 mph N/A   Unknown
12:15 PM 32.0 °F 21.2 °F 24.8 °F 75% 30.02 in 10.0 mi West 16.1 mph 24.2 mph N/A   Unknown
12:35 PM 32.0 °F 24.2 °F 24.8 °F 75% 30.01 in 10.0 mi WNW 9.2 mph 16.1 mph N/A   Unknown
12:55 PM 33.8 °F 24.8 °F 24.8 °F 70% 30.00 in 10.0 mi WNW 12.7 mph 18.4 mph N/A   Unknown
1:15 PM 33.8 °F 24.3 °F 24.8 °F 70% 29.99 in 10.0 mi WNW 13.8 mph 19.6 mph N/A   Unknown
1:35 PM 33.8 °F 24.3 °F 24.8 °F 70% 29.98 in 10.0 mi WNW 13.8 mph 18.4 mph N/A   Unknown
1:55 PM 33.8 °F 25.3 °F 24.8 °F 70% 29.97 in 10.0 mi West 11.5 mph 16.1 mph N/A   Unknown
2:15 PM 35.6 °F 27.5 °F 26.6 °F 70% 29.94 in 10.0 mi NW 11.5 mph - N/A   Unknown
2:35 PM 33.8 °F 25.8 °F 24.8 °F 70% 29.93 in 10.0 mi WNW 10.4 mph - N/A   Unknown
2:55 PM 33.8 °F 28.6 °F 24.8 °F 70% 29.90 in 10.0 mi NNW 5.8 mph - N/A   Unknown
3:15 PM 35.6 °F 27.5 °F 24.8 °F 65% 29.91 in 10.0 mi WNW 11.5 mph - N/A   Unknown
3:35 PM 35.6 °F 29.9 °F 26.6 °F 70% 29.93 in 10.0 mi West 6.9 mph - N/A   Unknown
3:55 PM 35.6 °F 27.1 °F 26.6 °F 70% 29.95 in 10.0 mi West 12.7 mph - N/A   Unknown
4:15 PM 35.6 °F 28.0 °F 26.6 °F 70% 29.96 in 10.0 mi WNW 10.4 mph - N/A   Unknown
4:35 PM 35.6 °F 28.0 °F 26.6 °F 70% 29.97 in 10.0 mi NW 10.4 mph - N/A   Unknown
4:55 PM 35.6 °F 32.8 °F 26.6 °F 70% 29.97 in 10.0 mi WNW 3.5 mph - N/A   Unknown
5:15 PM 35.6 °F 30.7 °F 26.6 °F 70% 29.97 in 10.0 mi NW 5.8 mph - N/A   Unknown
5:35 PM 33.8 °F - 26.6 °F 75% 29.97 in 10.0 mi Calm Calm - N/A   Unknown
5:55 PM 32.0 °F - 26.6 °F 80% 29.98 in 10.0 mi Calm Calm - N/A   Unknown
6:15 PM 32.0 °F - 26.6 °F 80% 29.97 in 10.0 mi Calm Calm - N/A   Unknown
6:35 PM 30.2 °F - 24.8 °F 80% 29.97 in 10.0 mi Calm Calm - N/A   Unknown
6:55 PM 28.4 °F - 26.6 °F 93% 29.97 in 10.0 mi Calm Calm - N/A   Unknown
7:15 PM 28.4 °F - 26.6 °F 93% 29.96 in 10.0 mi Calm Calm - N/A   Unknown
7:35 PM 26.6 °F - 26.6 °F 100% 29.94 in 10.0 mi Calm Calm - N/A   Unknown
7:55 PM 26.6 °F - 26.6 °F 100% 29.93 in 10.0 mi Calm Calm - N/A   Unknown
8:15 PM 26.6 °F - 26.6 °F 100% 29.93 in 10.0 mi Calm Calm - N/A   Unknown
8:35 PM 26.6 °F - 26.6 °F 100% 29.93 in 10.0 mi Calm Calm - N/A   Unknown
9:15 PM 24.8 °F - 24.8 °F 100% 29.92 in 10.0 mi Calm Calm - N/A   Unknown
9:35 PM 24.8 °F - 24.8 °F 100% 29.91 in 10.0 mi Calm Calm - N/A   Unknown
9:55 PM 24.8 °F - 24.8 °F 100% 29.91 in 10.0 mi Calm Calm - N/A   Unknown
10:15 PM 24.8 °F - 24.8 °F 100% 29.91 in 10.0 mi Calm Calm - N/A   Unknown
10:35 PM 24.8 °F - 24.8 °F 100% 29.91 in 10.0 mi Calm Calm - N/A   Unknown
10:55 PM 24.8 °F - 24.8 °F 100% 29.91 in 10.0 mi Calm Calm - N/A   Unknown
11:15 PM 23.0 °F - 23.0 °F 100% 29.90 in 10.0 mi Calm Calm - N/A   Unknown
11:35 PM 23.0 °F - 23.0 °F 100% 29.90 in 10.0 mi Calm Calm - N/A   Unknown
11:55 PM 23.0 °F - 23.0 °F 100% 29.90 in 10.0 mi Calm Calm - N/A   Unknown